Location: Chapleau
(47.8423°N, 83.4026°W)
Time: 10:54:17
(UTC-05:00)

ISS - Visible Passes

Search period start: 19 February 2018 00:00
Search period end: 01 March 2018 00:00
Orbit: 403 x 407 km, 51.6° (Epoch: 20 February)

Date Brightness Start Highest point End Pass type
(mag) Time Alt. Az. Time Alt. Az. Time Alt. Az.
26 Feb -1.1 06:34:46 10° S 06:37:10 19° SE 06:39:35 10° E visible
27 Feb -0.8 05:44:03 10° SSE 05:45:08 11° SE 05:46:12 10° ESE visible
28 Feb -2.4 06:25:47 10° SW 06:28:50 37° SE 06:31:53 10° ENE visible
